Weather History for Traverse City, MI

Change the Weather History Date:

Thursday, February 21, 2013

  Actual Average Record
Temperature  
Mean Temperature 19 °F 24 °F  
Max Temperature 23 °F 32 °F 57 °F (1930)
Min Temperature 15 °F 16 °F -14 °F (1918)
Degree Days  
Heating Degree Days 46 41  
Month to date heating degree days 923 902  
Since 1 July heating degree days 4602 5058  
Moisture  
Dew Point 12 °F    
Average Humidity 71    
Maximum Humidity 80    
Minimum Humidity 62    
Precipitation  
Precipitation T in 0.05 in 0.51 in (1937)
Month to date precipitation 1.14 1.12  
Year to date precipitation 3.36 3.94  
Snow  
Snow 0.00 in - - ()
Snow Depth 12.00 in    
Sea Level Pressure  
Sea Level Pressure 30.36 in    
Wind  
Wind Speed 8 mph (NE)    
Max Wind Speed 18 mph    
Max Gust Speed 25 mph    
Visibility 9 miles    
Events Snow    
T = Trace of Precipitation, MM = Missing Value Source: NWS Daily Summary

Daily Weather History Graph

Daily Weather History Graph

Search for Another Location

Airport:

Trip Planner

Search our weather history database for the weather conditions in past years. The results will help you decide how hot, cold, wet, or windy it might be!

Date:

Astronomy

Feb. 21, 2013 Rise Set
Actual Time 7:32 AM EST 6:19 PM EST
Civil Twilight 7:03 AM EST 6:49 PM EST
Nautical Twilight 6:29 AM EST 7:23 PM EST
Astronomical Twilight 5:55 AM EST 7:57 PM EST
Moon 2:27 PM EST (2/21) 4:43 AM EST (2/21)
Length of Visible Light 11h 45m
Length of Day
10h 46m
Waxing Gibbous, 83% of the Moon is Illuminated
Feb 21
Waxing Gibbous
Feb 25
Full
Mar 4
Last Quarter
Mar 11
New
Mar 19
First Quarter

Hourly Weather History & Observations

Time (EST) Temp. Windchill Dew Point Humidity Pressure Visibility Wind Dir Wind Speed Gust Speed Precip Events Conditions
12:53 AM 23.0 °F 11.1 °F 15.1 °F 72% 30.28 in 9.0 mi North 12.7 mph 23.0 mph N/A   Overcast
1:53 AM 21.9 °F 9.2 °F 15.1 °F 75% 30.30 in 10.0 mi North 13.8 mph 21.9 mph N/A   Overcast
2:53 AM 21.9 °F 9.8 °F 14.0 °F 72% 30.32 in 10.0 mi North 12.7 mph 20.7 mph N/A   Overcast
3:53 AM 21.0 °F 9.3 °F 14.0 °F 74% 30.33 in 10.0 mi North 11.5 mph - N/A   Overcast
4:50 AM 19.4 °F 9.5 °F 14.0 °F 80% 30.31 in 8.0 mi ENE 8.1 mph - 0.00 in Snow Light Snow
4:53 AM 19.0 °F 6.8 °F 14.0 °F 81% 30.34 in 9.0 mi NE 11.5 mph - 0.00 in Snow Light Snow
5:53 AM 18.0 °F 6.1 °F 12.0 °F 78% 30.36 in 10.0 mi NE 10.4 mph - 0.00 in   Overcast
6:53 AM 18.0 °F 8.7 °F 12.0 °F 78% 30.39 in 7.0 mi NE 6.9 mph - 0.00 in Snow Light Snow
7:53 AM 17.1 °F 10.0 °F 10.9 °F 77% 30.42 in 9.0 mi East 4.6 mph - 0.00 in Snow Light Snow
8:53 AM 18.0 °F 11.1 °F 12.0 °F 78% 30.40 in 9.0 mi East 4.6 mph - 0.00 in Snow Light Snow
9:53 AM 18.0 °F 6.1 °F 12.0 °F 78% 30.37 in 9.0 mi ENE 10.4 mph - 0.00 in Snow Light Snow
10:53 AM 18.0 °F 7.7 °F 12.0 °F 78% 30.41 in 9.0 mi ENE 8.1 mph - 0.00 in Snow Light Snow
11:53 AM 18.0 °F 6.9 °F 12.9 °F 81% 30.41 in 9.0 mi NE 9.2 mph - 0.00 in Snow Light Snow
12:53 PM 19.0 °F 12.3 °F 12.0 °F 74% 30.42 in 8.0 mi North 4.6 mph - 0.00 in Snow Light Snow
1:53 PM 19.0 °F 10.0 °F 12.9 °F 77% 30.41 in 9.0 mi NNE 6.9 mph - 0.00 in Snow Light Snow
2:53 PM 19.0 °F 9.0 °F 12.0 °F 74% 30.39 in 9.0 mi NNE 8.1 mph - 0.00 in Snow Light Snow
3:01 PM 19.4 °F 10.4 °F 12.2 °F 74% 30.35 in 9.0 mi North 6.9 mph - 0.00 in Snow Light Snow
3:26 PM 19.4 °F 10.4 °F 12.2 °F 74% 30.35 in 10.0 mi North 6.9 mph - 0.00 in   Scattered Clouds
3:53 PM 19.9 °F 10.1 °F 12.0 °F 71% 30.36 in 10.0 mi NNE 8.1 mph - 0.00 in   Mostly Cloudy
4:53 PM 21.0 °F 11.4 °F 12.0 °F 68% 30.35 in 10.0 mi NNE 8.1 mph - N/A   Mostly Cloudy
5:53 PM 21.0 °F 16.2 °F 10.9 °F 65% 30.37 in 10.0 mi North 3.5 mph - N/A   Mostly Cloudy
6:53 PM 19.9 °F - 12.0 °F 71% 30.38 in 10.0 mi Calm Calm - N/A   Mostly Cloudy
7:53 PM 17.1 °F 11.7 °F 12.0 °F 81% 30.35 in 10.0 mi ESE 3.5 mph - N/A   Mostly Cloudy
8:53 PM 17.1 °F 10.0 °F 10.0 °F 74% 30.34 in 10.0 mi East 4.6 mph - N/A   Mostly Cloudy
10:53 PM 19.9 °F 10.1 °F 10.0 °F 65% 30.31 in 10.0 mi ENE 8.1 mph - N/A   Clear
11:53 PM 19.0 °F 7.5 °F 9.0 °F 65% 30.29 in 10.0 mi East 10.4 mph - N/A   Clear